Location: Palomar Mountain Lodge
(33.3110°N, 116.8495°W)
Time: 10:28:49
(UTC-07:00)

GPS 2-05 Rocket1 - Pass Details

Date: 19 May 2017
Orbit: 368 x 437 km, 35.6° (Epoch: 23 September)

Event Time Altitude Azimuth Distance (km) Brightness Sun altitude
Rises 20:32:14 0° 284° (WNW) 2,224 8.0 -9.8°
Reaches altitude 10° 20:34:17 10° 282° (WNW) 1,383 6.7 -10.1°
Maximum altitude 20:37:24 73° 197° (SSW) 403 2.6 -10.7°
Enters shadow 20:39:40 18° 114° (ESE) 1,044 4.1 -11.1°
